Year,Month,Day,Hour,Minute,Value (Times are PST for windspeed in km/hr)
2010,07,12,00,00,19.10
2010,07,12,00,01,16.50
2010,07,12,00,02,19.90
2010,07,12,00,03,17.90
2010,07,12,00,04,20.90
2010,07,12,00,05,18.60
2010,07,12,00,06,20.60
2010,07,12,00,07,20.20
2010,07,12,00,08,24.40
2010,07,12,00,09,21.90
2010,07,12,00,10,21.60
2010,07,12,00,11,18.60
2010,07,12,00,12,16.80
2010,07,12,00,13,21.20
2010,07,12,00,14,16.70
2010,07,12,00,15,18.20
2010,07,12,00,16,20.40
2010,07,12,00,17,19.70
2010,07,12,00,18,18.20
2010,07,12,00,19,22.90
2010,07,12,00,20,22.50
2010,07,12,00,21,23.20
2010,07,12,00,22,24.40
2010,07,12,00,23,19.30
2010,07,12,00,24,18.10
2010,07,12,00,25,22.70
2010,07,12,00,26,21.30
2010,07,12,00,27,17.40
2010,07,12,00,28,17.70
2010,07,12,00,29,21.50
2010,07,12,00,30,23.00
2010,07,12,00,31,21.30
2010,07,12,00,32,18.00
2010,07,12,00,33,16.60
2010,07,12,00,34,22.40
2010,07,12,00,35,18.80
2010,07,12,00,36,19.40
2010,07,12,00,37,21.90
2010,07,12,00,38,20.80
2010,07,12,00,39,21.30
2010,07,12,00,40,23.10
2010,07,12,00,41,26.50
2010,07,12,00,42,24.00
2010,07,12,00,43,20.30
2010,07,12,00,44,19.40
2010,07,12,00,45,21.90
2010,07,12,00,46,17.20
2010,07,12,00,47,23.40
2010,07,12,00,48,23.30
2010,07,12,00,49,22.70
2010,07,12,00,50,23.00
2010,07,12,00,51,19.00
2010,07,12,00,52,22.70
2010,07,12,00,53,21.30
2010,07,12,00,54,21.60
2010,07,12,00,55,15.50
2010,07,12,00,56,15.90
2010,07,12,00,57,12.10
2010,07,12,00,58,20.10
2010,07,12,00,59,20.60
2010,07,12,01,00,19.30
2010,07,12,01,01,21.20
2010,07,12,01,02,17.70
2010,07,12,01,03,20.40
2010,07,12,01,04,21.20
2010,07,12,01,05,25.60
2010,07,12,01,06,20.90
2010,07,12,01,07,19.00
2010,07,12,01,08,19.70
2010,07,12,01,09,18.00
2010,07,12,01,10,17.10
2010,07,12,01,11,22.40
2010,07,12,01,12,21.90
2010,07,12,01,13,20.40
2010,07,12,01,14,18.70
2010,07,12,01,15,19.90
2010,07,12,01,16,22.00
2010,07,12,01,17,16.60
2010,07,12,01,18,17.90
2010,07,12,01,19,16.30
2010,07,12,01,20,17.20
2010,07,12,01,21,17.80
2010,07,12,01,22,22.40
2010,07,12,01,23,21.00
2010,07,12,01,24,21.00
2010,07,12,01,25,19.70
2010,07,12,01,26,20.80
2010,07,12,01,27,21.20
2010,07,12,01,28,26.50
2010,07,12,01,29,24.80
2010,07,12,01,30,21.60
2010,07,12,01,31,21.80
2010,07,12,01,32,13.60
2010,07,12,01,33,15.50
2010,07,12,01,34,16.20
2010,07,12,01,35,30.10
2010,07,12,01,36,19.00
2010,07,12,01,37,20.80
2010,07,12,01,38,23.50
2010,07,12,01,39,29.30
2010,07,12,01,40,18.90
2010,07,12,01,41,23.90
2010,07,12,01,42,18.50
2010,07,12,01,43,17.50
2010,07,12,01,44,13.70
2010,07,12,01,45,21.00
2010,07,12,01,46,19.80
2010,07,12,01,47,22.80
2010,07,12,01,48,22.50
2010,07,12,01,49,22.40
2010,07,12,01,50,17.20
2010,07,12,01,51,15.00
2010,07,12,01,52,20.80
2010,07,12,01,53,21.10
2010,07,12,01,54,20.50
2010,07,12,01,55,20.20
2010,07,12,01,56,18.80
2010,07,12,01,57,14.80
2010,07,12,01,58,11.40
2010,07,12,01,59,13.30
2010,07,12,02,00,13.40
2010,07,12,02,01,17.40
2010,07,12,02,02,15.20
2010,07,12,02,03,13.60
2010,07,12,02,04,17.10
2010,07,12,02,05,20.60
2010,07,12,02,06,22.80
2010,07,12,02,07,22.90
2010,07,12,02,08,23.10
2010,07,12,02,09,15.00
2010,07,12,02,10,16.40
2010,07,12,02,11,18.10
2010,07,12,02,12,18.50
2010,07,12,02,13,17.70
2010,07,12,02,14,21.10
2010,07,12,02,15,18.00
2010,07,12,02,16,22.00
2010,07,12,02,17,22.70
2010,07,12,02,18,20.70
2010,07,12,02,19,23.40
2010,07,12,02,20,25.30
2010,07,12,02,21,18.30
2010,07,12,02,22,20.30
2010,07,12,02,23,19.90
2010,07,12,02,24,19.70
2010,07,12,02,25,17.70
2010,07,12,02,26,16.40
2010,07,12,02,27,14.30
2010,07,12,02,28,14.50
2010,07,12,02,29,16.90
2010,07,12,02,30,17.90
2010,07,12,02,31,18.30
2010,07,12,02,32,18.00
2010,07,12,02,33,13.60
2010,07,12,02,34,20.40
2010,07,12,02,35,18.20
2010,07,12,02,36,23.00
2010,07,12,02,37,19.70
2010,07,12,02,38,22.70
2010,07,12,02,39,20.20
2010,07,12,02,40,20.80
2010,07,12,02,41,19.20
2010,07,12,02,42,17.50
2010,07,12,02,43,24.20
2010,07,12,02,44,22.40
2010,07,12,02,45,21.40
2010,07,12,02,46,23.70
2010,07,12,02,47,25.00
2010,07,12,02,48,18.00
2010,07,12,02,49,24.10
2010,07,12,02,50,20.90
2010,07,12,02,51,12.40
2010,07,12,02,52,19.20
2010,07,12,02,53,16.90
2010,07,12,02,54,21.10
2010,07,12,02,55,25.20
2010,07,12,02,56,23.30
2010,07,12,02,57,19.60
2010,07,12,02,58,24.50
2010,07,12,02,59,22.00
2010,07,12,03,00,20.90
2010,07,12,03,01,17.60
2010,07,12,03,02,18.60
2010,07,12,03,03,20.00
2010,07,12,03,04,21.70
2010,07,12,03,05,19.00
2010,07,12,03,06,14.70
2010,07,12,03,07,20.80
2010,07,12,03,08,24.90
2010,07,12,03,09,16.80
2010,07,12,03,10,26.10
2010,07,12,03,11,25.30
2010,07,12,03,12,25.00
2010,07,12,03,13,19.70
2010,07,12,03,14,19.00
2010,07,12,03,15,25.80
2010,07,12,03,16,25.30
2010,07,12,03,17,23.30
2010,07,12,03,18,24.60
2010,07,12,03,19,21.30
2010,07,12,03,20,20.80
2010,07,12,03,21,18.30
2010,07,12,03,22,19.60
2010,07,12,03,23,21.00
2010,07,12,03,24,23.20
2010,07,12,03,25,16.40
2010,07,12,03,26,23.00
2010,07,12,03,27,18.60
2010,07,12,03,28,24.50
2010,07,12,03,29,28.70
2010,07,12,03,30,19.10
2010,07,12,03,31,24.40
2010,07,12,03,32,20.50
2010,07,12,03,33,22.20
2010,07,12,03,34,26.50
2010,07,12,03,35,25.30
2010,07,12,03,36,25.60
2010,07,12,03,37,16.90
2010,07,12,03,38,21.60
2010,07,12,03,39,28.80
2010,07,12,03,40,30.90
2010,07,12,03,41,27.10
2010,07,12,03,42,19.10
2010,07,12,03,43,20.90
2010,07,12,03,44,28.70
2010,07,12,03,45,18.80
2010,07,12,03,46,22.50
2010,07,12,03,47,25.70
2010,07,12,03,48,19.80
2010,07,12,03,49,25.30
2010,07,12,03,50,28.50
2010,07,12,03,51,28.40
2010,07,12,03,52,27.60
2010,07,12,03,53,30.70
2010,07,12,03,54,24.70
2010,07,12,03,55,27.30
2010,07,12,03,56,24.60
2010,07,12,03,57,27.80
2010,07,12,03,58,20.60
2010,07,12,03,59,27.80
2010,07,12,04,00,24.20
2010,07,12,04,01,24.50
2010,07,12,04,02,30.20
2010,07,12,04,03,23.60
2010,07,12,04,04,22.20
2010,07,12,04,05,23.80
2010,07,12,04,06,20.40
2010,07,12,04,07,22.80
2010,07,12,04,08,27.80
2010,07,12,04,09,25.20
2010,07,12,04,10,23.80
2010,07,12,04,11,21.00
2010,07,12,04,12,22.70
2010,07,12,04,13,12.50
2010,07,12,04,14,23.10
2010,07,12,04,15,28.00
2010,07,12,04,16,20.60
2010,07,12,04,17,23.00
2010,07,12,04,18,22.90
2010,07,12,04,19,28.60
2010,07,12,04,20,32.90
2010,07,12,04,21,27.40
2010,07,12,04,22,20.80
2010,07,12,04,23,18.20
2010,07,12,04,24,26.40
2010,07,12,04,25,23.30
2010,07,12,04,26,32.00
2010,07,12,04,27,27.80
2010,07,12,04,28,27.40
2010,07,12,04,29,32.40
2010,07,12,04,30,26.90
2010,07,12,04,31,26.00
2010,07,12,04,32,27.10
2010,07,12,04,33,20.80
2010,07,12,04,34,29.80
2010,07,12,04,35,25.60
2010,07,12,04,36,22.40
2010,07,12,04,37,30.30
2010,07,12,04,38,29.50
2010,07,12,04,39,25.70
2010,07,12,04,40,21.00
2010,07,12,04,41,25.80
2010,07,12,04,42,22.40
2010,07,12,04,43,19.80
2010,07,12,04,44,24.20
2010,07,12,04,45,19.50
2010,07,12,04,46,16.80
2010,07,12,04,47,26.50
2010,07,12,04,48,14.80
2010,07,12,04,49,24.10
2010,07,12,04,50,20.90
2010,07,12,04,51,23.10
2010,07,12,04,52,24.10
2010,07,12,04,53,28.30
2010,07,12,04,54,23.30
2010,07,12,04,55,26.50
2010,07,12,04,56,18.70
2010,07,12,04,57,17.50
2010,07,12,04,58,21.40
2010,07,12,04,59,20.80
2010,07,12,05,00,21.60
2010,07,12,05,01,20.60
2010,07,12,05,02,11.50
2010,07,12,05,03,13.00
2010,07,12,05,04,16.90
2010,07,12,05,05,21.60
2010,07,12,05,06,23.70
2010,07,12,05,07,18.90
2010,07,12,05,08,24.10
2010,07,12,05,09,17.60
2010,07,12,05,10,18.30
2010,07,12,05,11,15.80
2010,07,12,05,12,11.60
2010,07,12,05,13,13.00
2010,07,12,05,14,9.40
2010,07,12,05,15,13.30
2010,07,12,05,16,10.10
2010,07,12,05,17,13.00
2010,07,12,05,18,11.40
2010,07,12,05,19,12.80
2010,07,12,05,20,14.30
2010,07,12,05,21,9.20
2010,07,12,05,22,15.60
2010,07,12,05,23,9.50
2010,07,12,05,24,14.60
2010,07,12,05,25,15.40
2010,07,12,05,26,17.40
2010,07,12,05,27,16.70
2010,07,12,05,28,14.40
2010,07,12,05,29,16.70
2010,07,12,05,30,18.70
2010,07,12,05,31,17.30
2010,07,12,05,32,13.60
2010,07,12,05,33,15.80
2010,07,12,05,34,19.10
2010,07,12,05,35,13.60
2010,07,12,05,36,16.60
2010,07,12,05,37,18.60
2010,07,12,05,38,15.10
2010,07,12,05,39,14.00
2010,07,12,05,40,16.20
2010,07,12,05,41,17.50
2010,07,12,05,42,17.50
2010,07,12,05,43,19.80
2010,07,12,05,44,13.90
2010,07,12,05,45,20.90
2010,07,12,05,46,17.60
2010,07,12,05,47,11.50
2010,07,12,05,48,17.60
2010,07,12,05,49,17.20
2010,07,12,05,50,14.50
2010,07,12,05,51,15.20
2010,07,12,05,52,19.40
2010,07,12,05,53,15.30
2010,07,12,05,54,10.80
2010,07,12,05,55,15.30
2010,07,12,05,56,17.80
2010,07,12,05,57,16.50
2010,07,12,05,58,19.10
2010,07,12,05,59,17.20
2010,07,12,06,00,18.60
2010,07,12,06,01,15.00
2010,07,12,06,02,15.50
2010,07,12,06,03,16.70
2010,07,12,06,04,15.10
2010,07,12,06,05,20.80
2010,07,12,06,06,15.90
2010,07,12,06,07,14.00
2010,07,12,06,08,16.40
2010,07,12,06,09,24.90
2010,07,12,06,10,18.60
2010,07,12,06,11,17.20
2010,07,12,06,12,20.00
2010,07,12,06,13,14.60
2010,07,12,06,14,15.20
2010,07,12,06,15,16.90
2010,07,12,06,16,10.20
2010,07,12,06,17,16.80
2010,07,12,06,18,15.90
2010,07,12,06,19,14.60
2010,07,12,06,20,13.00
2010,07,12,06,21,18.20
2010,07,12,06,22,16.70
2010,07,12,06,23,17.80
2010,07,12,06,24,14.50
2010,07,12,06,25,15.10
2010,07,12,06,26,13.80
2010,07,12,06,27,19.10
2010,07,12,06,28,16.00
2010,07,12,06,29,14.10
2010,07,12,06,30,12.20
2010,07,12,06,31,16.70
2010,07,12,06,32,19.10
2010,07,12,06,33,18.70
2010,07,12,06,34,18.70
2010,07,12,06,35,18.60
2010,07,12,06,36,14.00
2010,07,12,06,37,14.00
2010,07,12,06,38,18.70
2010,07,12,06,39,16.90
2010,07,12,06,40,14.30
2010,07,12,06,41,14.50
2010,07,12,06,42,19.50
2010,07,12,06,43,16.70
2010,07,12,06,44,14.60
2010,07,12,06,45,14.70
2010,07,12,06,46,12.00
2010,07,12,06,47,13.00
2010,07,12,06,48,9.90
2010,07,12,06,49,5.90
2010,07,12,06,50,8.60
2010,07,12,06,51,8.60
2010,07,12,06,52,13.40
2010,07,12,06,53,14.40
2010,07,12,06,54,14.90
2010,07,12,06,55,13.40
2010,07,12,06,56,12.90
2010,07,12,06,57,10.90
2010,07,12,06,58,13.40
2010,07,12,06,59,11.10
2010,07,12,07,00,15.10
2010,07,12,07,01,18.10
2010,07,12,07,02,12.60
2010,07,12,07,03,11.80
2010,07,12,07,04,14.30
2010,07,12,07,05,16.60
2010,07,12,07,06,15.70
2010,07,12,07,07,18.50
2010,07,12,07,08,14.90
2010,07,12,07,09,14.80
2010,07,12,07,10,12.30
2010,07,12,07,11,13.00
2010,07,12,07,12,14.60
2010,07,12,07,13,15.40
2010,07,12,07,14,11.50
2010,07,12,07,15,8.40
2010,07,12,07,16,10.50
2010,07,12,07,17,16.10
2010,07,12,07,18,16.30
2010,07,12,07,19,15.20
2010,07,12,07,20,10.50
2010,07,12,07,21,9.30
2010,07,12,07,22,7.00
2010,07,12,07,23,10.00
2010,07,12,07,24,16.10
2010,07,12,07,25,12.10
2010,07,12,07,26,17.90
2010,07,12,07,27,17.80
2010,07,12,07,28,16.40
2010,07,12,07,29,12.60
2010,07,12,07,30,12.90
2010,07,12,07,31,11.30
2010,07,12,07,32,13.60
2010,07,12,07,33,14.20
2010,07,12,07,34,15.00
2010,07,12,07,35,18.90
2010,07,12,07,36,26.20
2010,07,12,07,37,31.10
2010,07,12,07,38,22.00
2010,07,12,07,39,25.10
2010,07,12,07,40,25.20
2010,07,12,07,41,21.60
2010,07,12,07,42,22.80
2010,07,12,07,43,27.10
2010,07,12,07,44,25.40
2010,07,12,07,45,16.50
2010,07,12,07,46,14.90
2010,07,12,07,47,13.80
2010,07,12,07,48,16.50
2010,07,12,07,49,20.20
2010,07,12,07,50,23.10
2010,07,12,07,51,23.60
2010,07,12,07,52,23.70
2010,07,12,07,53,22.90
2010,07,12,07,54,20.30
2010,07,12,07,55,24.80
2010,07,12,07,56,26.50
2010,07,12,07,57,26.00
2010,07,12,07,58,22.60
2010,07,12,07,59,16.50
2010,07,12,08,00,21.20
2010,07,12,08,01,17.40
2010,07,12,08,02,20.50
2010,07,12,08,03,19.80
2010,07,12,08,04,25.60
2010,07,12,08,05,20.20
2010,07,12,08,06,25.80
2010,07,12,08,07,26.20
2010,07,12,08,08,27.20
2010,07,12,08,09,25.20
2010,07,12,08,10,23.00
2010,07,12,08,11,27.00
2010,07,12,08,12,23.70
2010,07,12,08,13,27.10
2010,07,12,08,14,22.50
2010,07,12,08,15,24.90
2010,07,12,08,16,24.10
2010,07,12,08,17,27.70
2010,07,12,08,18,28.40
2010,07,12,08,19,21.10
2010,07,12,08,20,30.20
2010,07,12,08,21,27.40
2010,07,12,08,22,26.60
2010,07,12,08,23,20.50
2010,07,12,08,24,29.70
2010,07,12,08,25,30.30
2010,07,12,08,26,27.20
2010,07,12,08,27,27.80
2010,07,12,08,28,29.80
2010,07,12,08,29,25.70
2010,07,12,08,30,32.10
2010,07,12,08,31,27.80
2010,07,12,08,32,31.20
2010,07,12,08,33,29.90
2010,07,12,08,34,27.30
2010,07,12,08,35,26.00
2010,07,12,08,36,24.00
2010,07,12,08,37,25.60
2010,07,12,08,38,28.10
2010,07,12,08,39,19.90
2010,07,12,08,40,20.60
2010,07,12,08,41,17.60
2010,07,12,08,42,23.00
2010,07,12,08,43,27.00
2010,07,12,08,44,26.70
2010,07,12,08,45,21.50
2010,07,12,08,46,30.10
2010,07,12,08,47,29.40
2010,07,12,08,48,33.60
2010,07,12,08,49,27.90
2010,07,12,08,50,29.80
2010,07,12,08,51,27.20
2010,07,12,08,52,27.70
2010,07,12,08,53,28.90
2010,07,12,08,54,26.80
2010,07,12,08,55,27.00
2010,07,12,08,56,19.30
2010,07,12,08,57,15.90
2010,07,12,08,58,19.20
2010,07,12,08,59,20.30
2010,07,12,09,00,27.40
2010,07,12,09,01,27.10
2010,07,12,09,02,25.20
2010,07,12,09,03,24.40
2010,07,12,09,04,28.00
2010,07,12,09,05,20.70
2010,07,12,09,06,30.20
2010,07,12,09,07,26.70
2010,07,12,09,08,28.80
2010,07,12,09,09,25.40
2010,07,12,09,10,29.40
2010,07,12,09,11,26.60
2010,07,12,09,12,25.80
2010,07,12,09,13,21.90
2010,07,12,09,14,25.30
2010,07,12,09,15,31.10
2010,07,12,09,16,24.30
2010,07,12,09,17,28.30
2010,07,12,09,18,22.70
2010,07,12,09,19,21.60
2010,07,12,09,20,20.00
2010,07,12,09,21,28.40
2010,07,12,09,22,27.40
2010,07,12,09,23,17.60
2010,07,12,09,24,22.30
2010,07,12,09,25,30.10
2010,07,12,09,26,27.30
2010,07,12,09,27,25.00
2010,07,12,09,28,25.60
2010,07,12,09,29,22.60
2010,07,12,09,30,24.60
2010,07,12,09,31,27.70
2010,07,12,09,32,26.50
2010,07,12,09,33,18.30
2010,07,12,09,34,24.00
2010,07,12,09,35,26.40
2010,07,12,09,36,23.70
2010,07,12,09,37,21.20
2010,07,12,09,38,17.80
2010,07,12,09,39,26.90
2010,07,12,09,40,24.40
2010,07,12,09,41,27.80
2010,07,12,09,42,19.90
2010,07,12,09,43,15.70
2010,07,12,09,44,16.20
2010,07,12,09,45,23.20
2010,07,12,09,46,25.10
2010,07,12,09,47,30.40
2010,07,12,09,48,28.70
2010,07,12,09,49,26.90
2010,07,12,09,50,27.80
2010,07,12,09,51,20.00
2010,07,12,09,52,24.50
2010,07,12,09,53,21.70
2010,07,12,09,54,19.50
2010,07,12,09,55,26.20
2010,07,12,09,56,17.40
2010,07,12,09,57,28.20
2010,07,12,09,58,26.10
2010,07,12,09,59,24.60
2010,07,12,10,00,25.00
2010,07,12,10,01,20.20
2010,07,12,10,02,23.50
2010,07,12,10,03,18.60
2010,07,12,10,04,23.30
2010,07,12,10,05,22.50
2010,07,12,10,06,23.60
2010,07,12,10,07,29.80
2010,07,12,10,08,25.80
2010,07,12,10,09,21.60
2010,07,12,10,10,21.00
2010,07,12,10,11,25.10
2010,07,12,10,12,19.10
2010,07,12,10,13,28.50
2010,07,12,10,14,27.40
2010,07,12,10,15,31.90
2010,07,12,10,16,22.80
2010,07,12,10,17,19.20
2010,07,12,10,18,22.70
2010,07,12,10,19,29.30
2010,07,12,10,20,27.00
2010,07,12,10,21,30.70
2010,07,12,10,22,23.10
2010,07,12,10,23,28.70
2010,07,12,10,24,29.30
2010,07,12,10,25,28.50
2010,07,12,10,26,27.70
2010,07,12,10,27,26.40
2010,07,12,10,28,29.80
2010,07,12,10,29,23.00
2010,07,12,10,30,24.40
2010,07,12,10,31,20.00
2010,07,12,10,32,32.70
2010,07,12,10,33,24.50
2010,07,12,10,34,25.70
2010,07,12,10,35,28.70
2010,07,12,10,36,23.30
2010,07,12,10,37,18.40
2010,07,12,10,38,26.70
2010,07,12,10,39,28.30
2010,07,12,10,40,21.20
2010,07,12,10,41,25.40
2010,07,12,10,42,18.70
2010,07,12,10,43,20.70
2010,07,12,10,44,26.80
2010,07,12,10,45,28.80
2010,07,12,10,46,28.60
2010,07,12,10,47,23.80
2010,07,12,10,48,29.40
2010,07,12,10,49,24.40
2010,07,12,10,50,23.20
2010,07,12,10,51,16.80
2010,07,12,10,52,27.10
2010,07,12,10,53,31.90
2010,07,12,10,54,28.60
2010,07,12,10,55,32.50
2010,07,12,10,56,23.60
2010,07,12,10,57,26.80
2010,07,12,10,58,24.90
2010,07,12,10,59,30.10
2010,07,12,11,00,24.60
2010,07,12,11,01,23.10
2010,07,12,11,02,21.20
2010,07,12,11,03,24.50
2010,07,12,11,04,23.30
2010,07,12,11,05,33.90
2010,07,12,11,06,25.60
2010,07,12,11,07,20.40
2010,07,12,11,08,21.50
2010,07,12,11,09,23.10
2010,07,12,11,10,25.30
2010,07,12,11,11,31.70
2010,07,12,11,12,27.00
2010,07,12,11,13,32.60
2010,07,12,11,14,34.20
2010,07,12,11,15,30.30
2010,07,12,11,16,23.60
2010,07,12,11,17,18.30
2010,07,12,11,18,27.40
2010,07,12,11,19,23.90
2010,07,12,11,20,31.60
2010,07,12,11,21,24.90
2010,07,12,11,22,25.10
2010,07,12,11,23,26.80
2010,07,12,11,24,22.90
2010,07,12,11,25,26.20
2010,07,12,11,26,26.20
2010,07,12,11,27,24.10
2010,07,12,11,28,29.30
2010,07,12,11,29,32.60
2010,07,12,11,30,33.20
2010,07,12,11,31,20.40
2010,07,12,11,32,32.30
2010,07,12,11,33,21.80
2010,07,12,11,34,16.30
2010,07,12,11,35,24.40
2010,07,12,11,36,22.20
2010,07,12,11,37,28.50
2010,07,12,11,38,19.20
2010,07,12,11,39,29.40
2010,07,12,11,40,23.70
2010,07,12,11,41,29.40
2010,07,12,11,42,29.90
2010,07,12,11,43,33.20
2010,07,12,11,44,29.70
2010,07,12,11,45,31.30
2010,07,12,11,46,29.30
2010,07,12,11,47,24.40
2010,07,12,11,48,28.50
2010,07,12,11,49,33.80
2010,07,12,11,50,30.80
2010,07,12,11,51,27.40
2010,07,12,11,52,32.70
2010,07,12,11,53,35.60
2010,07,12,11,54,33.60
2010,07,12,11,55,33.20
2010,07,12,11,56,28.80
2010,07,12,11,57,30.40
2010,07,12,11,58,30.10
2010,07,12,11,59,26.20
2010,07,12,12,00,29.00
2010,07,12,12,01,23.80
2010,07,12,12,02,28.70
2010,07,12,12,03,23.70
2010,07,12,12,04,21.50
2010,07,12,12,05,22.60
2010,07,12,12,06,24.50
2010,07,12,12,07,28.80
2010,07,12,12,08,27.40
2010,07,12,12,09,24.20
2010,07,12,12,10,24.50
2010,07,12,12,11,19.60
2010,07,12,12,12,18.40
2010,07,12,12,13,21.90
2010,07,12,12,14,21.60
2010,07,12,12,15,22.30
2010,07,12,12,16,23.90
2010,07,12,12,17,21.20
2010,07,12,12,18,21.60
2010,07,12,12,19,23.50
2010,07,12,12,20,16.70
2010,07,12,12,21,19.20
2010,07,12,12,22,19.50
2010,07,12,12,23,19.40
2010,07,12,12,24,22.80
2010,07,12,12,25,21.80
2010,07,12,12,26,22.90
2010,07,12,12,27,22.10
2010,07,12,12,28,25.60
2010,07,12,12,29,21.40
2010,07,12,12,30,22.90
2010,07,12,12,31,25.20
2010,07,12,12,32,26.50
2010,07,12,12,33,25.50
2010,07,12,12,34,22.00
2010,07,12,12,35,24.60
2010,07,12,12,36,19.50
2010,07,12,12,37,18.60
2010,07,12,12,38,24.60
2010,07,12,12,39,21.90
2010,07,12,12,40,18.00
2010,07,12,12,41,21.80
2010,07,12,12,42,23.50
2010,07,12,12,43,23.90
2010,07,12,12,44,24.80
2010,07,12,12,45,23.70
2010,07,12,12,46,28.20
2010,07,12,12,47,25.00
2010,07,12,12,48,26.60
2010,07,12,12,49,26.00
2010,07,12,12,50,23.10
2010,07,12,12,51,27.30
2010,07,12,12,52,28.50
2010,07,12,12,53,25.90
2010,07,12,12,54,19.30
2010,07,12,12,55,21.10
2010,07,12,12,56,25.60
2010,07,12,12,57,24.10
2010,07,12,12,58,25.60
2010,07,12,12,59,25.30
2010,07,12,13,00,29.20
2010,07,12,13,01,27.70
2010,07,12,13,02,23.30
2010,07,12,13,03,20.00
2010,07,12,13,04,21.30
2010,07,12,13,05,27.70
2010,07,12,13,06,25.90
2010,07,12,13,07,29.10
2010,07,12,13,08,28.00
2010,07,12,13,09,24.20
2010,07,12,13,10,25.80
2010,07,12,13,11,25.30
2010,07,12,13,12,27.90
2010,07,12,13,13,21.80
2010,07,12,13,14,22.30
2010,07,12,13,15,24.40
2010,07,12,13,16,20.20
2010,07,12,13,17,24.10
2010,07,12,13,18,23.40
2010,07,12,13,19,17.90
2010,07,12,13,20,21.80
2010,07,12,13,21,29.40
2010,07,12,13,22,27.90
2010,07,12,13,23,27.30
2010,07,12,13,24,24.60
2010,07,12,13,25,25.00
2010,07,12,13,26,25.60
2010,07,12,13,27,25.70
2010,07,12,13,28,24.20
2010,07,12,13,29,23.20
2010,07,12,13,30,23.70
2010,07,12,13,31,17.40
2010,07,12,13,32,23.40
2010,07,12,13,33,25.80
2010,07,12,13,34,26.30
2010,07,12,13,35,23.70
2010,07,12,13,36,23.40
2010,07,12,13,37,24.20
2010,07,12,13,38,25.80
2010,07,12,13,39,24.30
2010,07,12,13,40,26.90
2010,07,12,13,41,22.80
2010,07,12,13,42,24.70
2010,07,12,13,43,29.50
2010,07,12,13,44,23.20
2010,07,12,13,45,22.90
2010,07,12,13,46,24.50
2010,07,12,13,47,29.00
2010,07,12,13,48,21.50
2010,07,12,13,49,20.80
2010,07,12,13,50,22.10
2010,07,12,13,51,24.50
2010,07,12,13,52,23.10
2010,07,12,13,53,20.40
2010,07,12,13,54,18.20
2010,07,12,13,55,20.90
2010,07,12,13,56,26.20
2010,07,12,13,57,20.90
2010,07,12,13,58,18.40
2010,07,12,13,59,19.20
2010,07,12,14,00,20.20
2010,07,12,14,01,19.20
2010,07,12,14,02,20.90
2010,07,12,14,03,27.50
2010,07,12,14,04,26.30
2010,07,12,14,05,22.40
2010,07,12,14,06,25.40
2010,07,12,14,07,28.20
2010,07,12,14,08,24.70
2010,07,12,14,09,27.00
2010,07,12,14,10,21.40
2010,07,12,14,11,28.00
2010,07,12,14,12,24.10
2010,07,12,14,13,22.00
2010,07,12,14,14,23.50
2010,07,12,14,15,22.10
2010,07,12,14,16,22.80
2010,07,12,14,17,23.40
2010,07,12,14,18,25.10
2010,07,12,14,19,29.20
2010,07,12,14,20,22.70
2010,07,12,14,21,23.10
2010,07,12,14,22,25.10
2010,07,12,14,23,27.40
2010,07,12,14,24,25.60
2010,07,12,14,25,25.60
2010,07,12,14,26,21.00
2010,07,12,14,27,24.10
2010,07,12,14,28,25.10
2010,07,12,14,29,24.40
2010,07,12,14,30,20.40
2010,07,12,14,31,17.60
2010,07,12,14,32,20.70
2010,07,12,14,33,26.60
2010,07,12,14,34,28.60
2010,07,12,14,35,24.80
2010,07,12,14,36,25.30
2010,07,12,14,37,23.90
2010,07,12,14,38,29.30
2010,07,12,14,39,22.90
2010,07,12,14,40,20.40
2010,07,12,14,41,25.30
2010,07,12,14,42,26.50
2010,07,12,14,43,20.70
2010,07,12,14,44,24.60
2010,07,12,14,45,21.20
2010,07,12,14,46,20.10
2010,07,12,14,47,24.20
2010,07,12,14,48,20.40
2010,07,12,14,49,24.50
2010,07,12,14,50,20.30
2010,07,12,14,51,21.20
2010,07,12,14,52,17.90
2010,07,12,14,53,18.80
2010,07,12,14,54,25.30
2010,07,12,14,55,21.60
2010,07,12,14,56,23.00
2010,07,12,14,57,23.40
2010,07,12,14,58,22.10
2010,07,12,14,59,29.70
2010,07,12,15,00,24.90
2010,07,12,15,01,25.80
2010,07,12,15,02,25.70
2010,07,12,15,03,28.40
2010,07,12,15,04,31.00
2010,07,12,15,05,28.80
2010,07,12,15,06,23.30
2010,07,12,15,07,23.80
2010,07,12,15,08,23.70
2010,07,12,15,09,30.30
2010,07,12,15,10,27.10
2010,07,12,15,11,31.60
2010,07,12,15,12,26.80
2010,07,12,15,13,25.50
2010,07,12,15,14,20.80
2010,07,12,15,15,26.20
2010,07,12,15,16,20.80
2010,07,12,15,17,27.20
2010,07,12,15,18,25.80
2010,07,12,15,19,24.10
2010,07,12,15,20,28.00
2010,07,12,15,21,25.10
2010,07,12,15,22,21.60
2010,07,12,15,23,27.10
2010,07,12,15,24,28.70
2010,07,12,15,25,26.70
2010,07,12,15,26,26.90
2010,07,12,15,27,32.30
2010,07,12,15,28,27.50
2010,07,12,15,29,25.60
2010,07,12,15,30,31.50
2010,07,12,15,31,29.90
2010,07,12,15,32,31.10
2010,07,12,15,33,27.40
2010,07,12,15,34,24.60
2010,07,12,15,35,28.70
2010,07,12,15,36,26.90
2010,07,12,15,37,30.80
2010,07,12,15,38,26.30
2010,07,12,15,39,26.80
2010,07,12,15,40,29.30
2010,07,12,15,41,22.90
2010,07,12,15,42,23.50
2010,07,12,15,43,26.70
2010,07,12,15,44,26.30
2010,07,12,15,45,20.60
2010,07,12,15,46,23.70
2010,07,12,15,47,23.10
2010,07,12,15,48,27.00
2010,07,12,15,49,25.40
2010,07,12,15,50,29.40
2010,07,12,15,51,25.30
2010,07,12,15,52,30.70
2010,07,12,15,53,27.80
2010,07,12,15,54,29.70
2010,07,12,15,55,34.60
2010,07,12,15,56,25.90
2010,07,12,15,57,23.80
2010,07,12,15,58,30.30
2010,07,12,15,59,28.80
2010,07,12,16,00,22.80
2010,07,12,16,01,25.00
2010,07,12,16,02,26.50
2010,07,12,16,03,25.10
2010,07,12,16,04,22.10
2010,07,12,16,05,23.70
2010,07,12,16,06,29.00
2010,07,12,16,07,28.70
2010,07,12,16,08,21.50
2010,07,12,16,09,21.90
2010,07,12,16,10,26.70
2010,07,12,16,11,28.90
2010,07,12,16,12,23.50
2010,07,12,16,13,25.10
2010,07,12,16,14,22.70
2010,07,12,16,15,19.40
2010,07,12,16,16,21.30
2010,07,12,16,17,20.80
2010,07,12,16,18,21.80
2010,07,12,16,19,25.20
2010,07,12,16,20,21.50
2010,07,12,16,21,26.20
2010,07,12,16,22,23.70
2010,07,12,16,23,21.70
2010,07,12,16,24,27.40
2010,07,12,16,25,26.30
2010,07,12,16,26,25.00
2010,07,12,16,27,24.50
2010,07,12,16,28,28.70
2010,07,12,16,29,36.90
2010,07,12,16,30,33.10
2010,07,12,16,31,27.30
2010,07,12,16,32,30.70
2010,07,12,16,33,23.60
2010,07,12,16,34,27.00
2010,07,12,16,35,25.60
2010,07,12,16,36,27.00
2010,07,12,16,37,20.20
2010,07,12,16,38,21.90
2010,07,12,16,39,20.70
2010,07,12,16,40,25.40
2010,07,12,16,41,29.70
2010,07,12,16,42,28.90
2010,07,12,16,43,22.60
2010,07,12,16,44,20.40
2010,07,12,16,45,23.60
2010,07,12,16,46,19.80
2010,07,12,16,47,20.00
2010,07,12,16,48,21.50
2010,07,12,16,49,21.10
2010,07,12,16,50,19.80
2010,07,12,16,51,32.40
2010,07,12,16,52,28.70
2010,07,12,16,53,19.60
2010,07,12,16,54,19.80
2010,07,12,16,55,26.30
2010,07,12,16,56,15.50
2010,07,12,16,57,23.50
2010,07,12,16,58,27.70
2010,07,12,16,59,28.30
2010,07,12,17,00,34.00
2010,07,12,17,01,26.90
2010,07,12,17,02,28.50
2010,07,12,17,03,23.40
2010,07,12,17,04,28.20
2010,07,12,17,05,30.30
2010,07,12,17,06,27.80
2010,07,12,17,07,27.70
2010,07,12,17,08,20.90
2010,07,12,17,09,18.30
2010,07,12,17,10,22.30
2010,07,12,17,11,22.60
2010,07,12,17,12,21.90
2010,07,12,17,13,24.90
2010,07,12,17,14,33.40
2010,07,12,17,15,27.00
2010,07,12,17,16,24.50
2010,07,12,17,17,27.20
2010,07,12,17,18,32.20
2010,07,12,17,19,27.00